When you browse on this site, cookies collect data to enhance your experience and personalize the content and advertising you see.
Visit our Privacy Policy to learn more. By continuing to use the site, you agree to this use of cookies and data.
  • în România
  • Lista ţărilor
  • Pe 7 zile
  • Temperatura apei
  • Hartă satelitară
  • Meteo pe hartă
  • Widget-uri
  • user-avatar
    Intrare

    Meteo pe oră la Luneville

    Astăzi, 26 Iunie, Miercuri

    Timp Temperatura Precipitaţii Vânt Presiune Umiditate
    00:00 +21°C° 0 mm 0 m/s 745 mmHg 83%
    01:00 +21°C° 0 mm 0 m/s 745 mmHg 84%
    02:00 +21°C° 0 mm 0 m/s 745 mmHg 85%
    03:00 +20°C° 0 mm 0 m/s 745 mmHg 86%
    04:00 +22°C° 0 mm 0 m/s 745 mmHg 84%
    05:00 +23°C° 0 mm 0 m/s 746 mmHg 82%
    06:00 +26°C° 0 mm 1 m/s 746 mmHg 80%
    07:00 +28°C° 0 mm 1 m/s 746 mmHg 76%
    08:00 +29°C° 0 mm 1 m/s 746 mmHg 72%
    09:00 +31°C° 0 mm 2 m/s 746 mmHg 68%
    10:00 +32°C° 0 mm 2 m/s 746 mmHg 66%
    11:00 +34°C° 0 mm 2 m/s 746 mmHg 63%
    12:00 +34°C° 0 mm 3 m/s 747 mmHg 62%
    13:00 +34°C° 0 mm 3 m/s 746 mmHg 62%
    14:00 +34°C° 0 mm 3 m/s 746 mmHg 63%
    15:00 +35°C° 0 mm 3 m/s 745 mmHg 64%
    16:00 +34°C° 0 mm 3 m/s 745 mmHg 68%
    17:00 +32°C° 0 mm 2 m/s 745 mmHg 72%
    18:00 +31°C° 0 mm 2 m/s 745 mmHg 76%
    19:00 +29°C° 0 mm 2 m/s 745 mmHg 77%
    20:00 +28°C° 0 mm 2 m/s 745 mmHg 79%
    21:00 +26°C° 0 mm 2 m/s 745 mmHg 81%
    22:00 +25°C° 0 mm 2 m/s 746 mmHg 82%
    23:00 +25°C° 0 mm 2 m/s 746 mmHg 82%

    Mâine, 27 Iunie, Joi

    Timp Temperatura Precipitaţii Vânt Presiune Umiditate
    00:00 +24°C° 0 mm 2 m/s 746 mmHg 83%
    01:00 +23°C° 0 mm 2 m/s 746 mmHg 84%
    02:00 +23°C° 0 mm 2 m/s 746 mmHg 86%
    03:00 +21°C° 0 mm 3 m/s 746 mmHg 87%
    04:00 +22°C° 0 mm 3 m/s 746 mmHg 87%
    05:00 +24°C° 0 mm 3 m/s 746 mmHg 87%
    06:00 +25°C° 0 mm 3 m/s 746 mmHg 87%
    07:00 +26°C° 0 mm 4 m/s 747 mmHg 84%
    08:00 +27°C° 0 mm 4 m/s 747 mmHg 82%
    09:00 +28°C° 0 mm 5 m/s 747 mmHg 79%
    10:00 +29°C° 0 mm 5 m/s 747 mmHg 76%
    11:00 +30°C° 0 mm 5 m/s 747 mmHg 72%
    12:00 +32°C° 0 mm 5 m/s 747 mmHg 69%
    13:00 +32°C° 0 mm 5 m/s 747 mmHg 68%
    14:00 +32°C° 0 mm 5 m/s 746 mmHg 67%
    15:00 +32°C° 0 mm 5 m/s 746 mmHg 67%
    16:00 +30°C° 0 mm 5 m/s 746 mmHg 69%
    17:00 +28°C° 0 mm 5 m/s 746 mmHg 71%
    18:00 +27°C° 0 mm 5 m/s 746 mmHg 73%
    19:00 +25°C° 0 mm 4 m/s 746 mmHg 68%
    20:00 +23°C° 0 mm 4 m/s 747 mmHg 63%
    21:00 +21°C° 0 mm 4 m/s 747 mmHg 58%
    22:00 +20°C° 0 mm 4 m/s 747 mmHg 60%
    23:00 +19°C° 0 mm 4 m/s 747 mmHg 62%

    Poimâine, 28 Iunie, Vineri

    Timp Temperatura Precipitaţii Vânt Presiune Umiditate
    00:00 +18°C° 0 mm 4 m/s 746 mmHg 63%
    01:00 +17°C° 0 mm 4 m/s 746 mmHg 65%
    02:00 +17°C° 0 mm 4 m/s 746 mmHg 66%
    03:00 +15°C° 0 mm 4 m/s 746 mmHg 68%
    04:00 +17°C° 0 mm 4 m/s 746 mmHg 70%
    05:00 +18°C° 0 mm 4 m/s 746 mmHg 73%
    06:00 +18°C° 0 mm 4 m/s 745 mmHg 76%
    07:00 +20°C° 0 mm 4 m/s 746 mmHg 73%
    08:00 +21°C° 0 mm 4 m/s 746 mmHg 71%
    09:00 +23°C° 0 mm 5 m/s 746 mmHg 69%
    10:00 +25°C° 0 mm 5 m/s 745 mmHg 66%
    11:00 +26°C° 0 mm 5 m/s 745 mmHg 62%
    12:00 +27°C° 0 mm 5 m/s 745 mmHg 59%
    13:00 +28°C° 0 mm 5 m/s 745 mmHg 59%
    14:00 +28°C° 0 mm 5 m/s 745 mmHg 60%
    15:00 +28°C° 0 mm 5 m/s 745 mmHg 60%
    16:00 +27°C° 0 mm 5 m/s 744 mmHg 63%
    17:00 +26°C° 0 mm 4 m/s 744 mmHg 66%
    18:00 +23°C° 0 mm 4 m/s 744 mmHg 69%
    19:00 +22°C° 0 mm 4 m/s 744 mmHg 70%
    20:00 +20°C° 0 mm 4 m/s 744 mmHg 70%
    21:00 +19°C° 0 mm 3 m/s 744 mmHg 70%
    22:00 +18°C° 0 mm 3 m/s 744 mmHg 70%
    23:00 +18°C° 0 mm 3 m/s 743 mmHg 70%

    29 Iunie, Sâmbătă

    Timp Temperatura Precipitaţii Vânt Presiune Umiditate
    00:00 +17°C° 0 mm 3 m/s 743 mmHg 70%
    01:00 +16°C° 0 mm 3 m/s 743 mmHg 74%
    02:00 +16°C° 0 mm 3 m/s 743 mmHg 78%
    03:00 +14°C° 0 mm 3 m/s 743 mmHg 82%
    04:00 +16°C° 0 mm 3 m/s 742 mmHg 81%
    05:00 +17°C° 0 mm 3 m/s 742 mmHg 80%
    06:00 +18°C° 0 mm 3 m/s 742 mmHg 79%
    07:00 +21°C° 0 mm 3 m/s 742 mmHg 74%
    08:00 +24°C° 0 mm 3 m/s 742 mmHg 68%
    09:00 +26°C° 0 mm 3 m/s 742 mmHg 63%
    10:00 +27°C° 0 mm 3 m/s 742 mmHg 60%
    11:00 +28°C° 0 mm 3 m/s 742 mmHg 57%
    12:00 +30°C° 0 mm 3 m/s 742 mmHg 53%
    13:00 +30°C° 0 mm 3 m/s 742 mmHg 54%
    14:00 +30°C° 0 mm 3 m/s 742 mmHg 55%
    15:00 +31°C° 0 mm 3 m/s 741 mmHg 56%
    16:00 +30°C° 0 mm 3 m/s 741 mmHg 61%
    17:00 +29°C° 0 mm 2 m/s 741 mmHg 66%
    18:00 +28°C° 0 mm 2 m/s 741 mmHg 72%
    19:00 +26°C° 0 mm 2 m/s 741 mmHg 74%
    20:00 +24°C° 0 mm 1 m/s 741 mmHg 76%
    21:00 +22°C° 0 mm 1 m/s 741 mmHg 79%
    22:00 +22°C° 0 mm 1 m/s 741 mmHg 80%
    23:00 +22°C° 0 mm 1 m/s 741 mmHg 81%

    30 Iunie, Duminică

    Timp Temperatura Precipitaţii Vânt Presiune Umiditate
    00:00 +21°C° 0 mm 1 m/s 740 mmHg 82%
    01:00 +21°C° 0 mm 1 m/s 741 mmHg 84%
    02:00 +21°C° 0 mm 1 m/s 741 mmHg 85%
    03:00 +20°C° 0 mm 1 m/s 741 mmHg 86%
    04:00 +20°C° 0 mm 2 m/s 741 mmHg 85%
    05:00 +21°C° 0 mm 2 m/s 741 mmHg 85%
    06:00 +23°C° 0 mm 2 m/s 741 mmHg 84%
    07:00 +25°C° 0 mm 3 m/s 742 mmHg 79%
    08:00 +27°C° 0 mm 3 m/s 742 mmHg 75%
    09:00 +28°C° 0 mm 3 m/s 742 mmHg 70%
    10:00 +29°C° 0 mm 3 m/s 742 mmHg 67%
    11:00 +30°C° 0 mm 3 m/s 743 mmHg 63%
    12:00 +33°C° 0 mm 3 m/s 743 mmHg 60%
    13:00 +33°C° 0 mm 4 m/s 742 mmHg 63%
    14:00 +33°C° 0 mm 4 m/s 742 mmHg 65%
    15:00 +33°C° 0 mm 4 m/s 742 mmHg 68%
    16:00 +32°C° 0 mm 4 m/s 742 mmHg 73%
    17:00 +29°C° 0 mm 3 m/s 742 mmHg 78%
    18:00 +28°C° 0 mm 3 m/s 742 mmHg 83%
    19:00 +27°C° 0 mm 2 m/s 743 mmHg 87%
    20:00 +25°C° 0 mm 2 m/s 743 mmHg 90%
    21:00 +23°C° 0 mm 1 m/s 743 mmHg 94%
    22:00 +23°C° 0 mm 1 m/s 743 mmHg 94%
    23:00 +22°C° 0 mm 1 m/s 743 mmHg 94%

    1 Iulie, Luni

    Timp Temperatura Precipitaţii Vânt Presiune Umiditate
    00:00 +22°C° 0 mm 1 m/s 743 mmHg 93%
    01:00 +21°C° 0 mm 1 m/s 743 mmHg 93%
    02:00 +21°C° 0 mm 1 m/s 743 mmHg 93%
    03:00 +21°C° 0 mm 1 m/s 743 mmHg 92%
    04:00 +21°C° 0 mm 1 m/s 743 mmHg 90%
    05:00 +22°C° 0 mm 1 m/s 743 mmHg 88%
    06:00 +22°C° 0 mm 1 m/s 743 mmHg 86%
    07:00 +23°C° 0 mm 1 m/s 744 mmHg 79%
    08:00 +25°C° 0 mm 1 m/s 744 mmHg 73%
    09:00 +26°C° 0 mm 1 m/s 744 mmHg 67%
    10:00 +27°C° 0 mm 1 m/s 744 mmHg 63%
    11:00 +28°C° 0 mm 2 m/s 744 mmHg 58%
    12:00 +29°C° 0 mm 2 m/s 744 mmHg 54%
    13:00 +28°C° 0 mm 3 m/s 743 mmHg 56%
    14:00 +28°C° 0 mm 3 m/s 743 mmHg 57%
    15:00 +28°C° 0 mm 4 m/s 743 mmHg 59%
    16:00 +26°C° 0 mm 3 m/s 743 mmHg 63%
    17:00 +25°C° 0 mm 3 m/s 743 mmHg 68%
    18:00 +24°C° 0 mm 2 m/s 743 mmHg 72%
    19:00 +21°C° 0 mm 2 m/s 743 mmHg 76%
    20:00 +20°C° 0 mm 2 m/s 743 mmHg 81%
    21:00 +19°C° 0 mm 1 m/s 744 mmHg 85%
    22:00 +18°C° 0 mm 2 m/s 744 mmHg 86%
    23:00 +17°C° 0 mm 2 m/s 744 mmHg 88%
    Arată mai mult